When you browse on this site, cookies collect data to enhance your experience and personalize the content and advertising you see.
Visit our Privacy Policy to learn more. By continuing to use the site, you agree to this use of cookies and data.
EN

Hourly Weather Weisswasser

Today, 7 July, Tuesday

Time Temperature Precipitation Wind Pressure Humidity
00:00 +12°C° 0 mm 3 mps 750 mmHg 78%
01:00 +11°C° 0 mm 3 mps 750 mmHg 82%
02:00 +11°C° 0 mm 3 mps 750 mmHg 85%
03:00 +11°C° 0 mm 4 mps 750 mmHg 87%
04:00 +10°C° 0 mm 4 mps 751 mmHg 89%
05:00 +11°C° 0 mm 4 mps 751 mmHg 84%
06:00 +12°C° 0 mm 4 mps 751 mmHg 80%
07:00 +13°C° 0 mm 4 mps 751 mmHg 75%
08:00 +14°C° 0.1 mm 4 mps 751 mmHg 68%
09:00 +16°C° 0.1 mm 5 mps 751 mmHg 61%
10:00 +17°C° 0.1 mm 5 mps 751 mmHg 55%
11:00 +19°C° 0 mm 5 mps 751 mmHg 52%
12:00 +19°C° 0 mm 5 mps 751 mmHg 49%
13:00 +20°C° 0 mm 5 mps 751 mmHg 46%
14:00 +20°C° 0 mm 5 mps 751 mmHg 46%
15:00 +20°C° 0 mm 4 mps 751 mmHg 46%
16:00 +20°C° 0 mm 4 mps 750 mmHg 46%
17:00 +20°C° 0 mm 3 mps 750 mmHg 50%
18:00 +19°C° 0 mm 3 mps 750 mmHg 55%
19:00 +18°C° 0 mm 2 mps 749 mmHg 59%
20:00 +17°C° 0 mm 2 mps 749 mmHg 62%
21:00 +16°C° 0 mm 2 mps 749 mmHg 65%
22:00 +15°C° 0 mm 2 mps 749 mmHg 69%
23:00 +14°C° 0.1 mm 3 mps 749 mmHg 73%

Tomorrow, 8 July, Wednesday

Time Temperature Precipitation Wind Pressure Humidity
00:00 +13°C° 0.1 mm 3 mps 749 mmHg 77%
01:00 +13°C° 0.1 mm 3 mps 749 mmHg 81%
02:00 +13°C° 0 mm 3 mps 749 mmHg 83%
03:00 +12°C° 0 mm 3 mps 749 mmHg 84%
04:00 +12°C° 0 mm 3 mps 749 mmHg 85%
05:00 +12°C° 0 mm 3 mps 749 mmHg 84%
06:00 +12°C° 0 mm 3 mps 749 mmHg 83%
07:00 +13°C° 0 mm 2 mps 749 mmHg 83%
08:00 +12°C° 0.2 mm 3 mps 749 mmHg 84%
09:00 +12°C° 0.2 mm 3 mps 749 mmHg 86%
10:00 +12°C° 0.2 mm 3 mps 749 mmHg 87%
11:00 +13°C° 0.7 mm 3 mps 749 mmHg 89%
12:00 +13°C° 0.7 mm 3 mps 749 mmHg 90%
13:00 +13°C° 0.7 mm 3 mps 749 mmHg 91%
14:00 +13°C° 0.5 mm 3 mps 749 mmHg 91%
15:00 +13°C° 0.5 mm 3 mps 749 mmHg 92%
16:00 +13°C° 0.5 mm 3 mps 749 mmHg 92%
17:00 +13°C° 0 mm 3 mps 749 mmHg 91%
18:00 +14°C° 0 mm 3 mps 749 mmHg 90%
19:00 +15°C° 0 mm 2 mps 749 mmHg 88%
20:00 +14°C° 0 mm 2 mps 750 mmHg 91%
21:00 +13°C° 0 mm 2 mps 750 mmHg 93%
22:00 +12°C° 0 mm 2 mps 750 mmHg 95%
23:00 +12°C° 0 mm 2 mps 751 mmHg 96%

Day after tomorrow, 9 July, Thursday

Time Temperature Precipitation Wind Pressure Humidity
00:00 +12°C° 0 mm 2 mps 751 mmHg 96%
01:00 +10°C° 0 mm 2 mps 751 mmHg 96%
02:00 +10°C° 0 mm 2 mps 751 mmHg 96%
03:00 +10°C° 0 mm 2 mps 751 mmHg 96%
04:00 +10°C° 0 mm 2 mps 751 mmHg 96%
05:00 +12°C° 0 mm 2 mps 751 mmHg 92%
06:00 +14°C° 0 mm 2 mps 751 mmHg 88%
07:00 +15°C° 0 mm 2 mps 752 mmHg 85%
08:00 +16°C° 0 mm 2 mps 752 mmHg 79%
09:00 +18°C° 0 mm 2 mps 752 mmHg 74%
10:00 +19°C° 0 mm 2 mps 752 mmHg 69%
11:00 +20°C° 0.1 mm 3 mps 751 mmHg 66%
12:00 +21°C° 0.1 mm 3 mps 751 mmHg 64%
13:00 +22°C° 0.1 mm 3 mps 751 mmHg 61%
14:00 +22°C° 0.1 mm 3 mps 750 mmHg 60%
15:00 +24°C° 0.1 mm 3 mps 750 mmHg 59%
16:00 +24°C° 0.1 mm 3 mps 750 mmHg 58%
17:00 +23°C° 0 mm 2 mps 749 mmHg 63%
18:00 +21°C° 0 mm 2 mps 749 mmHg 68%
19:00 +21°C° 0 mm 1 mps 749 mmHg 74%
20:00 +19°C° 0 mm 2 mps 749 mmHg 78%
21:00 +18°C° 0 mm 2 mps 749 mmHg 83%
22:00 +18°C° 0 mm 2 mps 749 mmHg 88%
23:00 +18°C° 0 mm 2 mps 748 mmHg 87%

10 July, Friday

Time Temperature Precipitation Wind Pressure Humidity
00:00 +18°C° 0 mm 3 mps 748 mmHg 87%
01:00 +18°C° 0 mm 3 mps 747 mmHg 86%
02:00 +18°C° 0 mm 3 mps 747 mmHg 87%
03:00 +18°C° 0 mm 3 mps 746 mmHg 87%
04:00 +18°C° 0 mm 4 mps 746 mmHg 88%
05:00 +19°C° 0 mm 4 mps 745 mmHg 83%
06:00 +20°C° 0 mm 5 mps 745 mmHg 79%
07:00 +22°C° 0 mm 5 mps 744 mmHg 74%
08:00 +23°C° 0.1 mm 6 mps 744 mmHg 68%
09:00 +26°C° 0.1 mm 6 mps 744 mmHg 62%
10:00 +28°C° 0.1 mm 7 mps 743 mmHg 55%
11:00 +26°C° 1.2 mm 6 mps 743 mmHg 63%
12:00 +24°C° 1.2 mm 6 mps 743 mmHg 70%
13:00 +22°C° 1.2 mm 5 mps 743 mmHg 77%
14:00 +21°C° 1 mm 6 mps 744 mmHg 77%
15:00 +20°C° 1 mm 6 mps 744 mmHg 77%
16:00 +19°C° 1 mm 6 mps 745 mmHg 77%
17:00 +17°C° 0 mm 6 mps 746 mmHg 71%
18:00 +17°C° 0 mm 6 mps 746 mmHg 65%
19:00 +17°C° 0 mm 5 mps 747 mmHg 60%
20:00 +16°C° 0 mm 5 mps 748 mmHg 63%
21:00 +14°C° 0 mm 4 mps 749 mmHg 65%
22:00 +13°C° 0 mm 4 mps 749 mmHg 68%
23:00 +12°C° 0 mm 4 mps 750 mmHg 71%

11 July, Saturday

Time Temperature Precipitation Wind Pressure Humidity
00:00 +12°C° 0 mm 3 mps 750 mmHg 74%
01:00 +11°C° 0 mm 3 mps 751 mmHg 76%
02:00 +10°C° 0 mm 3 mps 751 mmHg 78%
03:00 +10°C° 0 mm 3 mps 751 mmHg 79%
04:00 +9°C° 0 mm 3 mps 752 mmHg 80%
05:00 +11°C° 0 mm 4 mps 752 mmHg 76%
06:00 +12°C° 0 mm 4 mps 752 mmHg 72%
07:00 +13°C° 0 mm 5 mps 752 mmHg 69%
08:00 +14°C° 0 mm 5 mps 752 mmHg 64%
09:00 +16°C° 0 mm 5 mps 752 mmHg 59%
10:00 +17°C° 0 mm 5 mps 752 mmHg 54%
11:00 +19°C° 0 mm 5 mps 752 mmHg 50%
12:00 +20°C° 0 mm 5 mps 752 mmHg 47%
13:00 +21°C° 0 mm 5 mps 752 mmHg 43%
14:00 +21°C° 0 mm 5 mps 752 mmHg 42%
15:00 +21°C° 0 mm 5 mps 752 mmHg 42%
16:00 +21°C° 0 mm 5 mps 752 mmHg 42%
17:00 +20°C° 0 mm 4 mps 752 mmHg 49%
18:00 +19°C° 0 mm 3 mps 752 mmHg 56%
19:00 +17°C° 0 mm 2 mps 752 mmHg 63%
20:00 +16°C° 0 mm 2 mps 753 mmHg 68%
21:00 +15°C° 0 mm 2 mps 753 mmHg 73%
22:00 +14°C° 0 mm 2 mps 753 mmHg 78%
23:00 +14°C° 0 mm 2 mps 754 mmHg 79%

12 July, Sunday

Time Temperature Precipitation Wind Pressure Humidity
00:00 +12°C° 0 mm 3 mps 754 mmHg 81%
01:00 +12°C° 0 mm 3 mps 754 mmHg 83%
02:00 +12°C° 0 mm 3 mps 754 mmHg 82%
03:00 +11°C° 0 mm 3 mps 754 mmHg 82%
04:00 +11°C° 0 mm 3 mps 755 mmHg 81%
05:00 +11°C° 0 mm 3 mps 755 mmHg 77%
06:00 +12°C° 0 mm 3 mps 755 mmHg 72%
07:00 +13°C° 0 mm 4 mps 756 mmHg 68%
08:00 +14°C° 0 mm 4 mps 756 mmHg 63%
09:00 +15°C° 0 mm 4 mps 756 mmHg 58%
10:00 +17°C° 0 mm 4 mps 756 mmHg 52%
11:00 +17°C° 0 mm 4 mps 756 mmHg 51%
12:00 +18°C° 0 mm 4 mps 757 mmHg 50%
13:00 +18°C° 0 mm 4 mps 757 mmHg 49%
14:00 +18°C° 0 mm 4 mps 757 mmHg 50%
15:00 +18°C° 0 mm 4 mps 756 mmHg 50%
16:00 +18°C° 0 mm 3 mps 756 mmHg 51%
17:00 +18°C° 0 mm 3 mps 756 mmHg 54%
18:00 +17°C° 0 mm 2 mps 756 mmHg 58%
19:00 +17°C° 0 mm 2 mps 756 mmHg 61%
20:00 +15°C° 0 mm 1 mps 756 mmHg 66%
21:00 +14°C° 0 mm 1 mps 757 mmHg 71%
22:00 +12°C° 0 mm 1 mps 757 mmHg 75%
23:00 +12°C° 0 mm 1 mps 757 mmHg 77%
Show more